759  
ASUS43 KGRB 241911  
RWRGRB  
 
NORTH-CENTRAL AND NORTHEAST WISCONSIN REGIONAL WEATHER ROUNDUP  
NATIONAL WEATHER SERVICE GREEN BAY WI  
200 PM CDT MON SEP 24 2018  
 
WIZ005-009-010>012-018-019-242000-  
NORTH CENTRAL WISCONSIN  
 
CITY SKY/WX TMP DP RH WIND PRES REMARKS
 
IRONWOOD FAIR 69 52 54 S12G21 29.87F  
MANITOWISH WTR FAIR 69 52 55 S16G26 29.92F  
ARBOR VITAE FAIR 72 54 53 S16G24 29.93F  
EAGLE RIVER FAIR 68 50 53 S13G22 29.96F  
LAND O LAKES FAIR 69 52 54 S16G24 29.96F  
RHINELANDER FAIR 72 50 45 S13G22 29.97F  
PHILLIPS FAIR 71 53 51 S14G24 29.90F  
ANTIGO FAIR 67 56 68 SE10 30.00F  
TOMAHAWK FAIR 71 53 52 SE7 29.95F  
MERRILL FAIR 71 55 55 S13 29.97F  

 
 
WIZ013-073-242000-  
NORTHEAST WISCONSIN  
 
CITY SKY/WX TMP DP RH WIND PRES REMARKS
 
IRON MOUNTAIN PTSUNNY 65 54 67 SE9G23 30.00F  
MARINETTE CLOUDY 65 57 75 S10G18 30.04F  
OCONTO FAIR 67 56 67 SE14 30.02F  

 
 
WIZ017-030-035>037-045-242000-  
CENTRAL WISCONSIN  
 
CITY SKY/WX TMP DP RH WIND PRES REMARKS
 
MEDFORD FAIR 71 51 50 SE14G22 29.94F  
WAUSAU FAIR 71 54 54 S13 29.96F  
MOSINEE PTSUNNY 70 55 60 S14 29.99F  
MARSHFIELD FAIR 71 56 58 S14G24 29.95F  
WISC RAPIDS FAIR 75 54 47 S14G22 29.96F  
STEVENS POINT FAIR 71 54 56 S10 29.97F  
WAUPACA FAIR 75 56 51 SE12 29.98F  
SHAWANO PTSUNNY 74 58 56 SE13 30.00F  
CLINTONVILLE FAIR 73 53 48 S12 29.99F  
WAUTOMA FAIR 73 57 57 S9 29.97F  

 
 
WIZ038-039-048-051-242000-  
FOX VALLEY  
 
CITY SKY/WX TMP DP RH WIND PRES REMARKS
 
NWS GREEN BAY FAIR 70 58 65 SE15 30.02F  
APPLETON MOSUNNY 70 54 56 SE14 30.00F  
OSHKOSH FAIR 73 57 57 SE15 29.99F  
FOND DU LAC PTSUNNY 74 56 53 SE13G18 30.00F  

 
 
WIZ022-050-052-242000-  
EAST CENTRAL WISCONSIN  
 
CITY SKY/WX TMP DP RH WIND PRES REMARKS
 
EPHRAIM FAIR 63 55 74 S13G20 30.05F  
WASHINGTON ISL MOCLDY 63 57 81 S9 30.05F  
STURGEON BAY CLOUDY 64 57 78 S10 30.05F  
MANITOWOC PTSUNNY 65 58 78 SE10 30.04F  
SHEBOYGAN FAIR 68 58 70 SE10 30.03F  

 
 
LMZ563-521-522-541>543-242000-  
LAKESHORE  
 
STATION/POSITION TIME TEMP WIND PRES VSBY WAVE
 
AIR SEA DIR/SP/G HT/PER  
(UTC) (F) (DEG/KT/KT) (MB) (MI) (FT/S)  
SHEBOYGAN LKSHOR 1900 62 140/ 12/ 12 1016.5F  
KEWAUNEE LKSHORE 1848 63 160/ 11/ 12 1016.8F  
NORTHPORT PIER 1840 63 150/ 6/ 8 1017.9F  
N MID LAKE BUOY 1850 63 64 120/ 10/ 12 1017.5F 3/ 4  
S GREEN BAY BUOY 1900 70 66 160/ 10/ 14 1017.1  
SISTER BAY LKSHO 1823 68 150/ 13/ 17 N/A  
CHAMBERS ISLAND 1840 66 170/ 7/ 10 1017.9F  
MENOMINEE LKSHOR 1848 64 67 150/ 12/ 15 1016.9F  

 
 
 
CLICK HERE TO GO TO PREVIOUS BULLETINS.

The Nexlab WI Page Main Text Page